記事タイトル:Comet C/2002 C1 (Ikeya-Zhang) 

最新の情報は「更新」や「再読み込み」ボタンを押してリロードしてご覧ください。

書き込み欄へ  ヘルプ
お名前: 佐藤 裕久    URL
二人のほかにもう一人独立発見者がおりました。
2月1.910日UT、7.5:等、dia 5' (P. M. Raymundo, Salvador、ブラジル、25cm反射)

暫定軌道が計算されました。
小惑星センターによる暫定軌道要素は次のとおり、

Orbital elements:
    C/2002 C1 (Ikeya-Zhang)
T 2002 Mar. 8.912 TT                                    MPC
q   0.49127              (2000.0)            P               Q
                   Peri.   19.237       -0.623647       -0.664184
                   Node   111.715       +0.646398       -0.734707
e   1.0            Incl.   26.341       +0.439584       +0.138076
From 24 observations 2002 Feb. 1-2.

Ephemeris:
    C/2002 C1 (Ikeya-Zhang)
Date    TT    R. A. (2000) Decl.     Delta      r     Elong.  Phase   m1
2002 01 26    23 58.97   -20 32.2    1.410    1.055    48.4    44.2   9.5
2002 01 28    00 01.99   -19 40.4    1.386    1.020    47.3    45.2   9.3
2002 01 30    00 05.11   -18 46.6    1.361    0.986    46.3    46.3   9.1
2002 02 01    00 08.31   -17 50.4    1.335    0.951    45.4    47.5   8.9
2002 02 03    00 11.58   -16 51.8    1.307    0.916    44.4    48.8   8.7
2002 02 05    00 14.93   -15 50.5    1.279    0.882    43.5    50.3   8.5
2002 02 07    00 18.33   -14 46.2    1.249    0.847    42.5    51.9   8.3
2002 02 09    00 21.77   -13 38.8    1.218    0.813    41.6    53.7   8.0
2002 02 11    00 25.24   -12 27.7    1.186    0.779    40.7    55.7   7.8
2002 02 13    00 28.71   -11 12.8    1.153    0.746    39.9    58.0   7.5
2002 02 15    00 32.14   -09 53.6    1.119    0.714    39.0    60.5   7.3
2002 02 17    00 35.50   -08 29.7    1.083    0.682    38.1    63.4   7.0
2002 02 19    00 38.73   -07 00.7    1.046    0.651    37.2    66.6   6.7
2002 02 21    00 41.77   -05 26.0    1.008    0.622    36.3    70.2   6.5
2002 02 23    00 44.52   -03 45.2    0.969    0.595    35.4    74.2   6.2
2002 02 25    00 46.89   -01 57.6    0.929    0.570    34.4    78.7   5.9
2002 02 27    00 48.74   -00 03.0    0.888    0.547    33.3    83.6   5.6
2002 03 01    00 49.92   +01 59.1    0.847    0.528    32.2    89.1   5.4
2002 03 03    00 50.24   +04 08.9    0.806    0.512    31.0    94.9   5.1
2002 03 05    00 49.52   +06 26.2    0.766    0.501    29.7   101.0   4.9
2002 03 07    00 47.54   +08 50.5    0.727    0.494    28.4   107.3   4.7
2002 03 09    00 44.11   +11 20.9    0.690    0.491    27.0   113.4   4.6
2002 03 11    00 39.08   +13 55.7    0.655    0.494    25.8   119.1   4.5
2002 03 13    00 32.34   +16 32.7    0.623    0.501    24.7   123.9   4.5
2002 03 15    00 23.83   +19 09.2    0.594    0.513    24.2   127.6   4.5
2002 03 17    00 13.60   +21 42.3    0.570    0.529    24.2   129.7   4.5
2002 03 19    00 01.76   +24 08.7    0.549    0.549    24.9   130.1   4.6
2002 03 21    23 48.49   +26 25.4    0.532    0.572    26.5   128.9   4.7
2002 03 23    23 34.02   +28 30.0    0.518    0.597    28.8   126.5   4.8
2002 03 25    23 18.63   +30 20.7    0.508    0.625    31.7   123.0   5.0
2002 03 27    23 02.61   +31 56.3    0.501    0.654    35.0   119.0   5.2
2002 03 29    22 46.23   +33 16.8    0.496    0.685    38.6   114.6   5.3
2002 03 31    22 29.73   +34 22.6    0.493    0.716    42.4   110.0   5.5

(IAUC 7813、MPEC 2002-C03)
[2002年2月3日 7時46分24秒]

この記事への返信をどうぞ。
氏名
E-mail URL



記事一覧に戻る